Time,TemperatureF,DewpointF,PressureIn,WindDirection,WindDirectionDegrees,WindSpeedMPH,WindSpeedGustMPH,Humidity,HourlyPrecipIn,Conditions,Clouds,dailyrainin,SoftwareType,DateUTC
2014-02-04 00:56:00,22.1,14.3,29.97,WSW,238,4.3,4.3,71,0.00,,,0.00,VWS V14.01,2014-02-04 05:56:00,
2014-02-04 01:56:00,21.9,14.4,29.97,SSW,192,2.2,2.9,72,0.00,,,0.00,VWS V14.01,2014-02-04 06:56:00,
2014-02-04 02:56:00,21.9,12.5,29.97,SW,215,2.0,2.5,66,0.00,,,0.00,VWS V14.01,2014-02-04 07:56:00,
2014-02-04 03:56:00,21.4,12.9,30.03,South,170,2.7,2.7,69,0.00,,,0.00,VWS V14.01,2014-02-04 08:56:00,
2014-02-04 04:56:00,21.0,13.2,30.03,SSE,148,1.3,1.3,71,0.00,,,0.00,VWS V14.01,2014-02-04 09:56:00,
2014-02-04 05:56:00,20.8,13.4,30.03,SSE,148,0.9,0.9,72,0.00,,,0.00,VWS V14.01,2014-02-04 10:56:00,
2014-02-04 06:56:00,20.7,13.2,30.03,WSW,238,1.3,1.3,72,0.00,,,0.00,VWS V14.01,2014-02-04 11:56:00,
2014-02-04 07:56:00,21.6,14.4,30.06,SSE,148,1.3,1.3,73,0.00,,,0.00,VWS V14.01,2014-02-04 12:56:00,
2014-02-04 08:56:00,23.2,13.7,30.09,WSW,238,2.7,2.9,66,0.00,,,0.00,VWS V14.01,2014-02-04 13:56:00,
2014-02-04 09:56:00,25.2,14.9,30.09,NNW,328,2.5,3.1,64,0.00,,,0.00,VWS V14.01,2014-02-04 14:56:00,
2014-02-04 10:56:00,24.6,14.0,30.09,NNE,12,3.6,4.0,63,0.00,,,0.00,VWS V14.01,2014-02-04 15:56:00,
2014-02-04 11:56:00,27.7,15.4,30.09,NNE,12,4.0,4.0,59,0.00,,,0.00,VWS V14.01,2014-02-04 16:56:00,
2014-02-04 12:56:00,28.0,12.0,30.03,NNE,12,4.3,4.7,50,0.00,,,0.00,VWS V14.01,2014-02-04 17:56:00,
2014-02-04 13:56:00,27.9,13.1,30.03,NNW,328,4.3,4.5,53,0.00,,,0.00,VWS V14.01,2014-02-04 18:56:00,
2014-02-04 14:56:00,28.0,12.9,29.97,NNW,328,2.9,2.9,52,0.00,,,0.00,VWS V14.01,2014-02-04 19:56:00,
2014-02-04 15:56:00,27.9,13.6,29.97,WNW,282,2.5,2.5,54,0.00,,,0.00,VWS V14.01,2014-02-04 20:56:00,
2014-02-04 16:56:00,26.1,13.9,29.97,West,260,1.6,1.6,59,0.00,,,0.00,VWS V14.01,2014-02-04 21:56:00,
2014-02-04 17:56:00,25.3,13.6,29.97,WSW,238,1.1,1.1,60,0.00,,,0.00,VWS V14.01,2014-02-04 22:56:00,
2014-02-04 18:56:00,25.2,13.4,29.97,NW,305,1.1,1.1,60,0.00,,,0.00,VWS V14.01,2014-02-04 23:56:00,
2014-02-04 19:56:00,25.0,14.0,29.97,SSE,148,1.3,1.3,62,0.00,,,0.00,VWS V14.01,2014-02-05 00:56:00,
2014-02-04 20:56:00,24.8,14.9,29.94,SSE,148,0.9,0.9,65,0.00,,,0.00,VWS V14.01,2014-02-05 01:56:00,
2014-02-04 21:56:00,25.0,15.4,29.97,ESE,102,1.1,1.1,66,0.00,,,0.00,VWS V14.01,2014-02-05 02:56:00,
2014-02-04 22:56:00,24.8,15.2,29.91,ESE,102,2.5,2.5,66,0.00,,,0.00,VWS V14.01,2014-02-05 03:56:00,
2014-02-04 23:56:00,25.2,13.8,29.82,SSE,148,1.6,2.5,61,0.00,,,0.00,VWS V14.01,2014-02-05 04:56:00,